Date Time,Air Temp,Sky Temp,Clarity,Light Level,Rain Sensor,Readings
2010-12-19 00:00:04,12.3,-6.6,19.0,0.8,2.4,112
2010-12-19 00:05:04,10.1,-5.5,15.6,0.7,2.3,111
2010-12-19 00:10:04,9.2,-5.3,14.5,0.7,2.0,112
2010-12-19 00:15:04,8.9,-5.6,14.5,0.7,2.2,111
2010-12-19 00:20:04,8.8,-5.6,14.4,0.7,2.4,112
2010-12-19 00:25:04,8.7,-5.9,14.6,0.7,2.3,111
2010-12-19 00:30:04,8.7,-5.8,14.5,0.7,2.3,111
2010-12-19 00:35:04,8.7,-5.9,14.6,0.7,2.3,112
2010-12-19 00:40:04,8.8,-6.9,15.7,0.6,2.3,111
2010-12-19 00:45:04,8.8,-5.6,14.4,0.6,2.3,112
2010-12-19 00:50:04,8.8,-5.4,14.2,0.6,2.3,111
2010-12-19 00:55:04,8.8,-5.3,14.1,0.6,2.3,111
2010-12-19 01:00:04,8.6,-5.4,14.0,0.6,2.3,112
2010-12-19 01:05:10,8.6,-5.8,14.4,0.6,2.3,112
2010-12-19 01:10:10,8.6,-5.6,14.1,0.6,2.3,111
2010-12-19 01:15:10,8.5,-6.0,14.5,0.6,2.3,112
2010-12-19 01:20:10,8.5,-7.3,15.8,0.6,2.3,111
2010-12-19 01:25:10,8.5,-8.4,16.9,0.6,2.3,112
2010-12-19 01:30:10,8.4,-8.1,16.6,0.6,2.3,111
2010-12-19 01:35:10,8.5,-6.2,14.6,0.6,2.3,112
2010-12-19 01:40:10,8.5,-6.0,14.5,0.5,2.3,111
2010-12-19 01:45:10,8.6,-7.0,15.6,0.6,2.3,112
2010-12-19 01:50:10,8.5,-8.2,16.7,0.6,2.3,111
2010-12-19 01:55:10,8.5,-6.8,15.3,0.6,2.3,112
2010-12-19 02:00:10,8.6,-6.4,15.0,0.5,2.3,112
2010-12-19 02:05:10,8.6,-8.7,17.2,0.5,2.3,112
2010-12-19 02:10:10,8.9,-8.7,17.7,0.6,2.3,111
2010-12-19 02:15:10,8.6,-8.3,16.8,0.6,2.3,112
2010-12-19 02:20:10,8.6,-7.5,16.1,0.5,2.3,111
2010-12-19 02:25:10,8.5,-7.7,16.2,0.5,2.3,111
2010-12-19 02:30:10,8.5,-9.1,17.6,0.5,2.3,112
2010-12-19 02:35:10,10.0,-14.2,24.2,0.5,2.3,111
2010-12-19 02:40:10,12.4,-11.3,23.6,0.5,2.2,112
2010-12-19 02:45:10,12.9,-9.3,22.2,0.5,2.3,112
2010-12-19 02:50:10,13.1,-9.1,22.1,0.4,2.6,112
2010-12-19 02:55:10,13.3,-8.5,21.8,0.4,2.4,111
2010-12-19 03:00:10,13.6,-7.6,21.2,0.4,2.3,112
2010-12-19 03:05:10,13.7,-7.7,21.4,0.4,2.3,111
2010-12-19 03:10:10,13.7,-11.0,24.7,0.4,2.3,111
2010-12-19 03:15:10,13.5,-16.8,30.3,0.4,2.3,112
2010-12-19 03:25:03,13.4,-14.6,28.0,0.4,2.3,66
2010-12-19 03:30:03,13.3,-13.3,26.6,0.5,2.3,111
2010-12-19 03:35:03,13.2,-10.7,23.8,0.4,2.3,112
2010-12-19 03:40:03,13.1,-10.6,23.7,0.4,2.3,112
2010-12-19 03:45:03,13.0,-11.8,24.8,0.4,2.4,111
2010-12-19 03:50:03,12.9,-10.3,23.2,0.4,2.7,112
2010-12-19 03:55:03,12.8,-9.0,21.7,0.4,2.6,112
2010-12-19 04:00:03,13.2,-7.9,21.1,0.4,2.6,112
2010-12-19 04:05:03,11.4,-7.5,18.9,0.4,2.4,111
2010-12-19 04:10:03,9.6,-7.9,17.5,0.4,2.2,112
2010-12-19 04:15:03,9.0,-7.8,16.8,0.4,2.3,111
2010-12-19 04:20:03,8.7,-7.8,16.5,0.4,2.3,112
2010-12-19 04:25:03,8.3,-8.3,16.6,0.4,2.3,111
2010-12-19 04:30:03,8.1,-9.2,17.3,0.4,2.4,112
2010-12-19 04:35:03,7.9,-10.5,18.4,0.4,2.5,112
2010-12-19 04:40:03,9.9,-13.4,23.3,0.4,2.3,112
2010-12-19 04:45:03,11.8,-14.5,26.4,0.4,2.2,112
2010-12-19 04:50:03,12.2,-14.7,26.9,0.4,2.2,111
2010-12-19 04:55:03,12.3,-14.8,27.0,0.4,2.3,112
2010-12-19 05:00:03,12.3,-13.9,26.2,0.4,2.3,111
2010-12-19 05:05:03,12.4,-11.9,24.3,0.4,2.3,112
2010-12-19 05:10:03,12.6,-10.7,23.4,0.4,2.3,111
2010-12-19 05:15:03,12.7,-10.0,22.8,0.4,2.4,112
2010-12-19 05:20:03,12.8,-8.5,21.3,0.4,2.5,112
2010-12-19 05:25:03,11.5,-7.3,18.7,0.4,2.2,111
2010-12-19 05:30:03,9.5,-6.5,16.1,0.4,2.2,112
2010-12-19 05:35:03,9.0,-7.4,16.3,0.4,2.3,112
2010-12-19 05:40:03,8.6,-7.5,16.1,0.4,2.3,111
2010-12-19 05:45:03,8.3,-8.3,16.6,0.4,2.3,112
2010-12-19 05:50:03,8.0,-8.7,16.7,0.4,2.5,111
2010-12-19 05:55:03,7.8,-8.8,16.6,0.4,2.7,112
2010-12-19 06:00:03,7.6,-8.4,16.0,0.4,2.7,112
2010-12-19 06:05:03,7.8,-8.1,15.9,0.4,2.7,111
2010-12-19 06:10:03,7.9,-7.7,15.6,0.4,2.7,112
2010-12-19 06:15:03,8.0,-8.1,16.1,0.4,2.6,111
2010-12-19 06:20:04,8.1,-8.3,16.3,0.5,2.4,112
2010-12-19 06:25:04,8.1,-9.7,17.8,0.5,2.4,112
2010-12-19 06:30:04,8.0,-10.6,18.7,0.6,2.4,112
2010-12-19 06:35:04,8.0,-10.4,18.4,0.5,2.6,111
2010-12-19 06:40:04,7.9,-10.1,18.0,0.5,2.6,112
2010-12-19 06:45:04,7.8,-10.3,18.1,0.5,2.7,112
2010-12-19 06:50:04,7.8,-11.0,18.8,0.6,2.7,112
2010-12-19 06:55:04,9.5,-12.9,22.4,0.6,2.4,111
2010-12-19 07:00:04,11.4,-12.8,24.2,0.7,2.3,112
2010-12-19 07:05:04,12.0,-13.2,25.2,0.8,2.1,111
2010-12-19 07:10:04,12.4,-10.7,23.1,1.0,2.3,112
2010-12-19 07:15:04,12.5,-8.5,21.0,1.3,2.3,111
2010-12-19 07:20:04,12.5,-8.3,20.8,2.1,2.3,112
2010-12-19 07:25:04,12.1,-8.3,20.4,3.7,2.3,112
2010-12-19 07:30:04,10.8,-8.0,18.8,6.5,2.2,112
2010-12-19 07:35:04,8.9,-7.9,16.8,10.7,2.3,111
2010-12-19 07:40:04,8.5,-6.9,15.4,15.0,2.3,112
2010-12-19 07:45:04,8.4,-7.8,16.2,19.8,2.3,112
2010-12-19 07:50:04,8.1,-7.6,15.7,23.5,2.4,111
2010-12-19 07:55:04,7.9,-7.5,15.4,26.1,2.5,111
2010-12-19 08:00:04,7.8,-8.8,16.6,28.2,2.6,112
2010-12-19 08:05:04,7.7,-9.6,17.4,29.3,2.6,112
2010-12-19 08:10:04,7.7,-10.9,18.6,30.1,2.7,111
2010-12-19 08:15:04,7.6,-10.1,17.8,30.6,2.7,112
2010-12-19 08:20:04,7.6,-10.7,18.3,31.0,2.7,112
2010-12-19 08:25:04,7.6,-10.7,18.3,31.3,2.7,111
2010-12-19 08:30:04,7.6,-10.4,18.1,31.4,2.7,112
2010-12-19 08:35:04,7.7,-9.4,17.1,31.6,2.7,111
2010-12-19 08:40:04,7.6,-9.6,17.3,31.7,2.7,112
2010-12-19 08:45:04,7.6,-11.5,19.2,31.8,2.7,112
2010-12-19 08:50:04,10.0,-14.2,24.2,31.9,2.3,111
2010-12-19 08:55:04,11.4,-14.2,25.5,32.0,2.3,111
2010-12-19 09:00:04,11.9,-14.2,26.2,32.0,2.1,112
2010-12-19 09:05:04,12.1,-14.3,26.4,32.1,2.3,111
2010-12-19 09:10:04,12.2,-14.2,26.4,32.1,2.3,112
2010-12-19 09:15:04,12.4,-14.3,26.7,32.2,2.4,111
2010-12-19 09:20:04,12.5,-14.4,26.8,32.2,2.5,111
2010-12-19 09:25:04,12.6,-14.3,26.9,32.2,2.7,112
2010-12-19 09:30:04,12.7,-14.1,26.8,32.2,2.6,112
2010-12-19 09:35:04,12.5,-13.8,26.3,32.2,2.5,111
2010-12-19 09:40:04,12.4,-13.4,25.8,32.2,2.4,111
2010-12-19 09:45:04,12.4,-13.3,25.7,32.3,2.4,112
2010-12-19 09:50:04,12.3,-13.5,25.9,32.3,2.4,111
2010-12-19 09:55:04,12.5,-12.7,25.2,32.3,2.6,112
2010-12-19 10:00:04,12.7,-12.6,25.3,32.3,2.6,111
2010-12-19 10:05:04,12.8,-13.2,26.0,32.4,2.3,111
2010-12-19 10:10:04,12.8,-13.5,26.3,32.4,2.3,112
2010-12-19 10:15:04,12.9,-13.1,26.0,32.4,2.3,112
2010-12-19 10:20:04,13.1,-13.1,26.2,32.4,2.3,111
2010-12-19 10:25:04,13.1,-12.4,25.5,32.4,2.3,111
2010-12-19 10:30:04,13.5,-12.8,26.3,32.4,2.3,112
2010-12-19 10:35:04,13.4,-12.9,26.3,32.4,2.4,111
2010-12-19 10:40:04,13.6,-12.9,26.5,32.4,2.4,111
2010-12-19 10:45:04,13.5,-11.9,25.4,32.4,2.6,112
2010-12-19 10:50:04,13.6,-11.3,24.9,32.4,2.6,111
2010-12-19 10:55:04,13.6,-8.8,22.4,32.4,2.6,112
2010-12-19 11:00:04,13.6,-9.5,23.2,32.4,2.6,112
2010-12-19 11:05:04,13.7,-10.3,24.0,32.5,2.6,111
2010-12-19 11:10:04,13.8,-10.5,24.3,32.5,2.4,112
2010-12-19 11:15:04,13.9,-10.6,24.5,32.5,2.3,112
2010-12-19 11:20:04,13.9,-10.0,23.9,32.5,2.3,111
2010-12-19 11:25:04,13.5,-9.6,23.1,32.5,2.3,112
2010-12-19 11:30:04,13.7,-11.0,24.7,32.5,2.3,111
2010-12-19 11:35:04,13.7,-9.1,22.8,32.5,2.4,112
2010-12-19 11:40:04,13.8,-7.4,21.2,32.5,2.3,112
2010-12-19 11:45:04,13.8,-7.3,21.1,32.5,2.3,111
2010-12-19 11:50:04,14.1,-7.3,21.4,32.5,2.3,112
2010-12-19 11:55:04,14.0,-8.1,22.2,32.5,2.3,112
2010-12-19 12:00:04,14.0,-8.4,22.4,32.5,2.3,111
2010-12-19 12:05:04,14.0,-8.5,22.5,32.5,2.3,112
2010-12-19 12:10:04,14.0,-8.3,22.3,32.4,2.3,112
2010-12-19 12:15:04,13.9,-8.3,22.2,32.4,2.3,112
2010-12-19 12:20:04,13.8,-8.3,22.1,32.4,2.3,111
2010-12-19 12:25:04,13.6,-8.0,21.7,32.4,2.6,112
2010-12-19 12:30:04,13.6,-7.7,21.2,32.4,2.6,111
2010-12-19 12:35:04,13.6,-8.7,22.4,32.5,2.6,112
2010-12-19 12:40:04,13.8,-9.3,23.2,32.5,2.4,112
2010-12-19 12:45:04,13.9,-9.3,23.3,32.5,2.3,111
2010-12-19 12:50:04,14.0,-9.4,23.4,32.5,2.3,112
2010-12-19 12:55:04,14.0,-9.5,23.6,32.5,2.3,112
2010-12-19 13:00:04,14.1,-9.6,23.7,32.5,2.3,112
2010-12-19 13:05:04,14.1,-10.2,24.2,32.5,2.3,112
2010-12-19 13:10:04,14.0,-10.5,24.5,32.5,2.3,112
2010-12-19 13:15:04,14.0,-10.4,24.4,32.5,2.3,112
2010-12-19 13:20:04,13.8,-9.9,23.7,32.5,2.3,112
2010-12-19 13:25:04,13.6,-8.6,22.2,32.4,2.3,112
2010-12-19 13:30:04,13.6,-8.1,21.7,32.4,2.3,112
2010-12-19 13:35:04,13.7,-8.0,21.7,32.4,2.3,111
2010-12-19 13:40:04,13.9,-8.5,22.4,32.4,2.3,112
2010-12-19 13:45:04,14.0,-8.8,22.9,32.4,2.3,112
2010-12-19 13:50:04,13.9,-9.3,23.3,32.4,2.3,111
2010-12-19 13:55:04,13.9,-10.2,24.1,32.4,2.3,112
2010-12-19 14:00:04,13.9,-10.4,24.4,32.4,2.3,112
2010-12-19 14:05:04,13.9,-10.4,24.3,32.4,2.3,112
2010-12-19 14:10:04,14.0,-11.8,25.8,32.4,2.3,112
2010-12-19 14:15:04,13.9,-14.0,27.9,32.4,2.3,111
2010-12-19 14:20:04,13.7,-15.6,29.3,32.4,2.3,112
2010-12-19 14:25:04,13.6,-16.4,30.0,32.5,2.3,111
2010-12-19 14:30:04,13.6,-16.8,30.4,32.5,2.3,112
2010-12-19 14:35:04,13.7,-17.3,31.0,32.5,2.3,111
2010-12-19 14:40:04,13.7,-18.3,32.0,32.5,2.3,112
2010-12-19 14:45:04,13.8,-19.6,33.4,32.5,2.3,111
2010-12-19 14:50:04,13.8,-21.3,35.1,32.4,2.3,112
2010-12-19 14:55:04,13.8,-22.6,36.4,32.5,2.3,111
2010-12-19 15:00:04,13.8,-22.6,36.4,32.4,2.3,112
2010-12-19 15:05:04,13.9,-21.2,35.1,32.4,2.3,112
2010-12-19 15:10:04,13.8,-20.4,34.2,32.4,2.3,111
2010-12-19 15:15:04,13.6,-19.6,33.2,32.3,2.5,111
2010-12-19 15:20:04,13.5,-18.1,31.6,32.3,2.6,112
2010-12-19 15:25:04,13.6,-14.6,28.2,32.2,2.6,112
2010-12-19 15:30:04,13.8,-11.4,25.2,32.1,2.4,111
2010-12-19 15:35:04,13.7,-9.9,23.6,32.0,2.4,112
2010-12-19 15:40:04,13.9,-9.2,23.1,31.8,2.3,111
2010-12-19 15:45:04,14.0,-9.2,23.1,31.7,2.3,112
2010-12-19 15:50:04,13.9,-10.8,24.7,31.5,2.3,112
2010-12-19 15:55:04,14.0,-11.4,25.4,31.3,2.3,111
2010-12-19 16:00:04,14.0,-8.9,22.9,30.6,2.3,112
2010-12-19 16:05:04,14.0,-9.0,23.0,30.0,2.3,112
2010-12-19 16:10:04,14.0,-12.7,26.7,29.5,2.3,111
2010-12-19 16:15:04,13.8,-15.8,29.6,28.3,2.3,112
2010-12-19 16:20:04,13.7,-20.8,34.5,26.2,2.4,111
2010-12-19 16:25:04,13.5,-18.1,31.6,22.9,2.5,112
2010-12-19 16:30:04,13.3,-11.2,24.5,17.5,2.5,112
2010-12-19 16:35:04,13.4,-10.8,24.2,11.9,2.6,112
2010-12-19 16:40:04,13.5,-11.4,25.0,7.7,2.6,111
2010-12-19 16:45:04,13.6,-11.1,24.6,4.6,2.5,112
2010-12-19 16:50:04,13.7,-11.5,25.2,2.6,2.6,111
2010-12-19 16:55:04,13.6,-11.3,24.8,1.5,2.6,111
2010-12-19 17:00:04,13.6,-12.4,26.0,1.0,2.6,112
2010-12-19 17:05:04,13.7,-13.3,27.0,0.7,2.6,111
2010-12-19 17:10:04,13.6,-12.3,26.0,0.6,2.6,112
2010-12-19 17:15:04,13.6,-15.8,29.3,0.5,2.5,111
2010-12-19 17:20:04,13.5,-15.7,29.2,0.4,2.4,112
2010-12-19 17:25:04,13.4,-20.5,33.9,0.4,2.3,111
2010-12-19 17:30:04,13.2,-23.2,36.4,0.3,2.3,112
2010-12-19 17:35:04,12.9,-26.7,39.6,0.3,2.3,111
2010-12-19 17:40:04,12.6,-27.8,40.4,0.2,2.4,111
2010-12-19 17:45:04,12.4,-27.3,39.8,0.3,2.5,112
2010-12-19 17:50:04,12.3,-29.2,41.5,0.2,2.6,111
2010-12-19 17:55:04,12.4,-29.7,42.1,0.2,2.6,111
2010-12-19 18:00:04,12.4,-29.6,42.0,0.2,2.6,112
2010-12-19 18:05:04,12.3,-29.2,41.5,0.3,2.6,111
2010-12-19 18:10:04,12.3,-29.1,41.4,0.3,2.4,112
2010-12-19 18:15:04,12.3,-27.1,39.4,0.3,2.3,112
2010-12-19 18:20:04,12.2,-25.7,37.9,0.4,2.3,111
2010-12-19 18:25:04,12.2,-25.2,37.4,0.3,2.3,112
2010-12-19 18:30:04,12.2,-27.7,39.9,0.3,2.3,111
2010-12-19 18:35:04,12.2,-30.4,42.6,0.3,2.5,111
2010-12-19 18:40:04,12.2,-30.8,43.0,0.3,2.6,112
2010-12-19 18:45:04,12.0,-31.1,43.1,0.2,2.6,111
2010-12-19 18:50:04,11.8,-31.1,42.9,0.3,2.4,112
2010-12-19 18:55:04,11.7,-31.0,42.7,0.3,2.3,111
2010-12-19 19:00:04,11.6,-30.9,42.5,0.3,2.3,111
2010-12-19 19:05:04,11.7,-31.2,42.9,0.3,2.3,112
2010-12-19 19:10:04,11.7,-31.4,43.1,0.3,2.3,111
2010-12-19 19:15:04,11.7,-31.4,43.1,0.3,2.3,112
2010-12-19 19:20:04,11.6,-31.4,43.1,0.3,2.1,112
2010-12-19 19:25:04,11.6,-31.5,43.1,0.4,2.1,111
2010-12-19 19:30:04,11.7,-31.4,43.1,0.4,2.1,111
2010-12-19 19:35:04,11.7,-31.5,43.2,0.4,2.1,111
2010-12-19 19:40:04,11.8,-30.6,42.4,0.5,2.2,112
2010-12-19 19:45:04,11.8,-30.2,42.0,0.5,2.2,111
2010-12-19 19:50:04,11.8,-30.1,41.9,0.5,2.2,112
2010-12-19 19:55:04,11.8,-29.6,41.4,0.6,2.4,111
2010-12-19 20:00:04,11.8,-29.5,41.3,0.6,2.3,112
2010-12-19 20:05:04,11.6,-29.2,40.8,0.6,2.4,111
2010-12-19 20:10:04,11.8,-28.8,40.6,0.7,2.3,112
2010-12-19 20:15:04,11.9,-28.4,40.3,0.7,2.2,111
2010-12-19 20:20:04,12.0,-29.2,41.2,0.7,2.1,111
2010-12-19 20:25:04,11.9,-29.7,41.7,0.8,2.1,112
2010-12-19 20:30:04,11.8,-29.9,41.7,0.8,2.2,111
2010-12-19 20:35:04,11.7,-29.7,41.4,0.8,2.2,112
2010-12-19 20:40:04,11.5,-30.0,41.6,0.8,2.3,111
2010-12-19 20:45:04,11.3,-30.2,41.5,0.8,2.3,111
2010-12-19 20:50:04,11.1,-29.7,40.8,0.9,2.3,112
2010-12-19 20:55:04,10.9,-28.5,39.4,0.9,2.3,111
2010-12-19 21:00:04,11.5,-26.5,38.0,0.9,2.3,112
2010-12-19 21:05:04,11.0,-25.8,36.8,0.9,2.3,111
2010-12-19 21:10:04,11.1,-25.9,37.0,0.9,2.3,112
2010-12-19 21:15:04,11.3,-26.1,37.4,0.9,2.3,111
2010-12-19 21:20:04,11.2,-26.7,37.9,1.0,2.3,112
2010-12-19 21:25:05,11.1,-26.8,38.0,1.0,2.3,111
2010-12-19 21:30:05,11.2,-26.8,38.0,1.0,2.3,112
2010-12-19 21:35:05,11.3,-26.8,38.1,1.0,2.3,111
2010-12-19 21:40:05,11.4,-27.2,38.6,1.0,2.3,112
2010-12-19 21:45:05,11.4,-27.1,38.5,1.0,2.3,111
2010-12-19 21:50:05,11.5,-26.1,37.7,1.1,2.3,112
2010-12-19 21:55:05,11.4,-25.7,37.1,1.1,2.3,111
2010-12-19 22:00:05,11.3,-25.8,37.2,1.1,2.3,112
2010-12-19 22:05:05,11.3,-26.1,37.5,1.1,2.3,111
2010-12-19 22:10:05,11.2,-27.0,38.2,1.0,2.3,111
2010-12-19 22:15:05,11.6,-28.5,40.1,1.1,2.3,112
2010-12-19 22:20:05,11.6,-29.6,41.2,1.1,2.3,111
2010-12-19 22:25:05,11.6,-29.8,41.4,1.1,2.3,112
2010-12-19 22:30:05,11.6,-30.7,42.3,1.1,2.3,111
2010-12-19 22:35:05,11.5,-32.1,43.7,1.1,2.3,112
2010-12-19 22:40:05,11.4,-33.0,44.4,1.1,2.3,111
2010-12-19 22:45:05,11.3,-33.6,44.9,1.1,2.3,111
2010-12-19 22:50:05,11.0,-33.6,44.6,1.2,2.3,112
2010-12-19 22:55:05,10.8,-33.6,44.4,1.2,2.3,111
2010-12-19 23:00:05,10.7,-33.4,44.1,1.2,2.3,111
2010-12-19 23:05:05,10.7,-33.3,44.0,1.2,2.3,111
2010-12-19 23:10:05,10.8,-33.3,44.1,1.2,2.3,112
2010-12-19 23:15:05,10.9,-33.0,43.9,1.2,2.3,111
2010-12-19 23:20:05,10.9,-32.7,43.7,1.2,2.3,111
2010-12-19 23:25:05,10.9,-32.3,43.3,1.3,2.3,112
2010-12-19 23:30:05,10.9,-32.0,42.9,1.2,2.3,112
2010-12-19 23:35:05,10.9,-31.6,42.6,1.2,2.3,111
2010-12-19 23:40:05,10.9,-31.3,42.2,1.2,2.3,111
2010-12-19 23:45:05,10.8,-31.3,42.1,1.2,2.3,111
2010-12-19 23:50:05,10.8,-31.0,41.7,1.2,2.3,111
2010-12-19 23:55:05,10.8,-30.8,41.6,1.2,2.3,112
